Starlink 31779

operational
NORAD ID: 59744 Int'l Des: 2024-090 Owner: SPXS Country: US Constellation: starlink
LEOCIRCULAR

About Starlink 31779

Description loading...

Live Position

Loading 3D Globe...

Upcoming Passes

Altitude History

Altitude vs Time

uPlot chart will show altitude changes over time

Two-Line Element Set

1 59744U 24090Q 26034.30368736 .00000504 00000-0 27841-4 0 9990
2 59744 43.0017 17.4864 0000764 261.3033 98.7732 15.27581966 98183
Epoch: Feb 3, 2026 • Age: 9 hours

Current Status

Altitude 486.1 km
Velocity 7.62 km/s
Sub-Earth Point -16.20°S, 25.61°W
Launch Date May 13, 2024
Age 1.7 years
Type internet

Technical Details

Classification Payload
Mass 730.00 kg
Dry Mass 700.00 kg
Total Mass 730.00 kg
Length 0.30 m
Diameter 4.10 m
Span 29.00 m
Shape Box + pan
Manufacturer SPXS
Bus Type Starlink V2M
Phase Status In Orbit
Owner/State SPXS/US

Large Constellations

Loading constellations...